Le nostre stazioni meteo in Italia

Pubblicità
Il mio iltempo24.it
Cagliari/Elmas, Italia (16560): Temperatura & dewpoint: 03.04.2020 18:00:00 - 09.04.2020 18:00:00 (CEST)Cagliari/Elmas, Italia (16560): velocità del vento: 03.04.2020 18:00:00 - 09.04.2020 18:00:00 (CEST)Cagliari/Elmas, Italia (16560): direzione del vento: 03.04.2020 18:00:00 - 09.04.2020 18:00:00 (CEST)Cagliari/Elmas, Italia (16560): reduced air pressure: 03.04.2020 18:00:00 - 09.04.2020 18:00:00 (CEST)Cagliari/Elmas, Italia (16560): visibility: 03.04.2020 18:00:00 - 09.04.2020 18:00:00 (CEST)Cagliari/Elmas, Italia (16560): precipitazioni: 03.04.2020 18:00:00 - 09.04.2020 18:00:00 (CEST)
Data & Tempo tt [°C] td [°C] ff [km/h] ff [kn] dd ppp [hPa] vv [km] rr [mm]
09.04.2020 18:00:00 - - - - - - - -
09.04.2020 17:00:00 18,3 10,2 15 8 SSE 1021,4 10 0,0
09.04.2020 16:00:00 20,0 8,0 15 8 SSE - 10 -
09.04.2020 15:00:00 20,0 8,0 15 8 SSE - 10 -
09.04.2020 14:00:00 20,0 8,4 11 6 S 1022,2 10 -
09.04.2020 13:00:00 20,0 9,0 11 6 S - 10 -
09.04.2020 12:00:00 20,0 8,0 9 5 SO - 10 -
09.04.2020 11:00:00 18,9 10,9 5 3 NE 1023,1 10 0,0
09.04.2020 10:00:00 15,0 10,0 5 3 NNO - 10 -
09.04.2020 09:00:00 12,0 9,0 8 4 NO - 10 -
09.04.2020 08:00:00 8,9 7,6 9 5 NNO 1022,5 10 -
09.04.2020 07:00:00 8,0 7,0 9 5 NNO - 10 -
09.04.2020 06:00:00 8,0 7,0 9 5 NNO - 10 -
09.04.2020 05:00:00 8,3 7,0 9 5 NNO 1022,3 10 0,0
09.04.2020 04:00:00 9,0 7,0 11 6 NNO - 10 -
09.04.2020 03:00:00 10,0 8,0 8 4 NO - 10 -
09.04.2020 02:00:00 10,4 7,7 5 3 N 1023,5 10 -
09.04.2020 01:00:00 11,0 7,0 8 4 NNO - 10 -
09.04.2020 00:00:00 11,0 7,0 8 4 N - 10 -
08.04.2020 23:00:00 12,5 9,6 9 5 ONO 1024,3 10 0,0
08.04.2020 22:00:00 14,0 8,0 8 4 NNE - 10 -
08.04.2020 21:00:00 15,0 10,0 11 6 E - 10 -
08.04.2020 20:00:00 16,5 8,0 15 8 ESE 1023,4 10 -
08.04.2020 19:00:00 17,0 9,0 18 10 SE - 10 -
08.04.2020 18:00:00 18,0 9,0 13 7 SSE - 10 -
08.04.2020 17:00:00 18,7 8,0 18 10 SSE 1023,3 10 0,0
08.04.2020 16:00:00 19,0 8,0 15 8 SSE - 10 -
08.04.2020 15:00:00 19,0 11,0 15 8 SSE - 10 -
08.04.2020 14:00:00 19,8 7,9 13 7 SSE 1024,7 10 -
08.04.2020 13:00:00 20,0 6,0 11 6 SSE - 10 -
08.04.2020 12:00:00 19,0 6,0 8 4 ESE - 10 -
08.04.2020 11:00:00 17,7 8,8 4 2 - 1025,9 10 0,0
08.04.2020 10:00:00 14,0 9,0 8 4 NNO - 10 -
08.04.2020 09:00:00 10,0 8,0 4 2 - - 10 -
08.04.2020 08:00:00 8,3 7,7 9 5 NNO 1025,9 10 -
08.04.2020 07:00:00 7,0 6,0 9 5 NNO - 10 -
08.04.2020 06:00:00 7,0 7,0 9 5 NO - 10 -
08.04.2020 05:00:00 7,7 7,0 8 4 NNO 1025,8 10 0,0
08.04.2020 04:00:00 8,0 7,0 9 5 NNO - 10 -
08.04.2020 03:00:00 9,0 7,0 13 7 NNO - 10 -
08.04.2020 02:00:00 10,0 8,6 11 6 NNO 1026,9 10 -
08.04.2020 01:00:00 11,0 8,0 8 4 NNO - 10 -
08.04.2020 00:00:00 11,0 8,0 8 4 NNO - 10 -
07.04.2020 23:00:00 13,1 7,7 8 4 NNO 1026,9 10 0,0
07.04.2020 22:00:00 15,0 8,0 8 4 S - 10 -
07.04.2020 21:00:00 15,0 8,0 11 6 S - 10 -
07.04.2020 20:00:00 15,5 9,4 11 6 S 1025,9 10 -
07.04.2020 19:00:00 17,0 9,0 15 8 S - 10 -
07.04.2020 18:00:00 18,0 10,0 15 8 S - 10 -
07.04.2020 17:00:00 18,2 9,1 18 10 S 1025,4 10 0,0
07.04.2020 16:00:00 19,0 9,0 18 10 S - 10 -
07.04.2020 15:00:00 19,0 8,0 16 9 S - 10 -
07.04.2020 14:00:00 20,1 5,9 13 7 S 1026,5 10 -
07.04.2020 13:00:00 20,0 5,0 11 6 SSO - 10 -
07.04.2020 12:00:00 19,0 5,0 8 4 SSO - 10 -
07.04.2020 11:00:00 17,2 5,7 8 4 ONO 1027,0 10 0,0
07.04.2020 10:00:00 14,0 8,0 8 4 NNO - 10 -
07.04.2020 09:00:00 10,0 8,0 11 6 NNO - 10 -
07.04.2020 08:00:00 7,8 6,8 5 3 N 1026,5 10 -
07.04.2020 07:00:00 7,0 6,0 8 4 NNO - 10 -
07.04.2020 06:00:00 7,0 7,0 8 4 NNO - 10 -
07.04.2020 05:00:00 7,2 6,2 9 5 NNO 1025,6 10 0,0
07.04.2020 04:00:00 8,0 8,0 5 3 N - 10 -
07.04.2020 03:00:00 9,0 7,0 4 2 - - 10 -
07.04.2020 02:00:00 9,3 7,6 8 4 NNO 1025,8 10 -
07.04.2020 01:00:00 10,0 8,0 9 5 N - 10 -
07.04.2020 00:00:00 11,0 8,0 2 1 - - 10 -
06.04.2020 23:00:00 12,5 8,0 4 2 NNE 1026,1 10 0,0
06.04.2020 22:00:00 14,0 5,0 4 2 - - 10 -
06.04.2020 21:00:00 15,0 9,0 8 4 SSE - 10 -
06.04.2020 20:00:00 15,0 8,4 9 5 SE 1024,3 10 -
06.04.2020 19:00:00 17,0 8,0 15 8 SE - 10 -
06.04.2020 18:00:00 18,0 8,0 15 8 SSE - 10 -
06.04.2020 17:00:00 17,9 6,2 18 10 SSE 1023,6 10 0,0
06.04.2020 16:00:00 18,0 6,0 18 10 SSE - 10 -
06.04.2020 15:00:00 18,0 6,0 15 8 S - 10 -
06.04.2020 14:00:00 19,3 4,4 13 7 S 1023,8 10 -
06.04.2020 13:00:00 19,0 5,0 8 4 SSO - 10 -
06.04.2020 12:00:00 18,0 6,0 8 4 ONO - 10 -
06.04.2020 11:00:00 15,4 8,3 9 5 ONO 1023,7 10 0,0
06.04.2020 10:00:00 12,0 8,0 9 5 ONO - 10 -
06.04.2020 09:00:00 9,0 7,0 8 4 NO - 10 -
06.04.2020 08:00:00 6,4 5,8 11 6 NNO 1022,3 10 -
06.04.2020 07:00:00 6,0 5,0 9 5 NO - 10 -
06.04.2020 06:00:00 7,0 6,0 9 5 NNO - 10 -
06.04.2020 05:00:00 7,8 6,5 5 3 NNO 1021,6 10 0,0
06.04.2020 04:00:00 9,0 8,0 9 5 NO - 10 -
06.04.2020 03:00:00 9,0 9,0 9 5 NO - 10 -
06.04.2020 02:00:00 10,3 9,8 5 3 NO 1021,5 10 -
06.04.2020 01:00:00 13,0 10,0 5 3 SE - 10 -
06.04.2020 00:00:00 13,0 10,0 5 3 SE - 10 -
05.04.2020 23:00:00 13,2 10,0 11 6 SE 1021,1 10 0,0
05.04.2020 22:00:00 14,0 10,0 11 6 S - 10 -
05.04.2020 21:00:00 15,0 11,0 13 7 S - 10 -
05.04.2020 20:00:00 14,7 11,4 16 9 SSE 1019,7 10 -
05.04.2020 19:00:00 16,0 10,0 18 10 SSE - 10 -
05.04.2020 18:00:00 17,0 8,0 18 10 S - 10 -
05.04.2020 17:00:00 17,2 8,2 21 11 S 1018,6 10 0,0
05.04.2020 16:00:00 19,0 5,0 21 11 S - 10 -
05.04.2020 15:00:00 19,0 4,0 16 9 S - 10 -
05.04.2020 14:00:00 18,9 1,4 13 7 SSO 1019,3 10 -
05.04.2020 13:00:00 18,0 2,0 8 4 SSO - 10 -
05.04.2020 12:00:00 17,0 4,0 9 5 NO - 10 -
05.04.2020 11:00:00 15,3 6,4 11 6 ONO 1020,6 30 0,0
05.04.2020 10:00:00 12,0 7,0 15 8 NO - 10 -
05.04.2020 09:00:00 8,0 7,0 11 6 NNO - 10 -
05.04.2020 08:00:00 7,4 6,6 11 6 NO 1020,5 10 -
05.04.2020 07:00:00 6,0 6,0 11 6 NNO - 10 -
05.04.2020 06:00:00 6,0 6,0 11 6 NO - 10 -
05.04.2020 05:00:00 6,1 5,7 11 6 NO 1019,9 10 0,0
05.04.2020 04:00:00 7,0 6,0 13 7 NO - 10 -
05.04.2020 03:00:00 8,0 8,0 8 4 NO - 10 -
05.04.2020 02:00:00 8,7 8,1 13 7 NNO 1020,4 10 -
05.04.2020 01:00:00 - - - - - - - -
05.04.2020 00:00:00 13,0 10,0 5 3 SSE - 10 -
04.04.2020 23:00:00 13,1 9,9 5 3 S 1020,3 10 0,0
04.04.2020 22:00:00 13,0 10,0 8 4 SSE - 10 -
04.04.2020 21:00:00 14,0 10,0 11 6 SSE - 10 -
04.04.2020 20:00:00 14,2 9,3 16 9 SSE 1018,6 10 -
04.04.2020 19:00:00 15,0 10,0 21 11 SE - 10 -
04.04.2020 18:00:00 16,0 11,0 26 14 SE - 10 -
04.04.2020 17:00:00 16,4 11,0 24 13 SE 1017,3 10 0,0
04.04.2020 16:00:00 17,0 9,0 21 11 SSE - 10 -
04.04.2020 15:00:00 18,0 10,0 15 8 SSE - 10 -
04.04.2020 14:00:00 19,0 4,0 11 6 ONO 1017,6 10 -
04.04.2020 13:00:00 17,0 9,0 11 6 NO - 10 -
04.04.2020 12:00:00 15,0 10,0 13 7 ONO - 10 -
04.04.2020 11:00:00 13,4 10,6 16 9 NO 1018,3 10 0,0
04.04.2020 10:00:00 11,0 10,0 13 7 NO - 10 -
04.04.2020 09:00:00 10,0 10,0 13 7 NO - 10 -
04.04.2020 08:00:00 8,0 8,0 9 5 NO - 5 -
04.04.2020 07:00:00 8,0 8,0 13 7 NO - 8 -
04.04.2020 06:00:00 8,0 8,0 8 4 NO - 10 -
04.04.2020 05:00:00 8,2 8,2 9 5 NNO 1015,6 6 0,0
04.04.2020 04:00:00 10,0 10,0 8 4 N - 10 -
04.04.2020 03:00:00 10,0 10,0 9 5 NNO - 7 -
04.04.2020 02:00:00 10,5 10,5 11 6 N 1015,1 5 -
04.04.2020 01:00:00 11,0 10,0 9 5 N - 10 -
04.04.2020 00:00:00 12,0 11,0 5 3 ONO - 10 -
03.04.2020 23:00:00 12,8 10,2 5 3 SO 1014,7 10 0,0
03.04.2020 22:00:00 13,0 10,0 5 3 S - 10 -
03.04.2020 21:00:00 - - - - - - - -
03.04.2020 20:00:00 12,3 10,3 5 3 ENE 1013,0 - -
03.04.2020 19:00:00 - - - - - - - -
03.04.2020 18:00:00 - - - - - - - -

tt = Temperatura
td = dewpoint
ff = velocità del vento
dd = direzione del vento
ppp = reduced air pressure
vv = visibility
rr = precipitazioni

Stazioni seguenti

WeatherPro
AMSI
MeteoEarth